Location: Pallagorio
(39.3000°N, 16.9000°E)
Time: 00:46:51
(UTC+00:00)

Iridium 4 Rocket - Pass Details

Date: 24 January 2021
Orbit: 583 x 906 km, 86.9° (Epoch: 08 March)

Event Time Altitude Azimuth Distance (km) Brightness Sun altitude
Rises 17:27:56 0° 0° (N) 3,422 6.7 -16.3°
Reaches altitude 10° 17:30:27 10° 3° (N) 2,441 6.0 -16.8°
Maximum altitude 17:35:55 69° 86° (E) 832 3.4 -17.8°
Drops below altitude 10° 17:40:52 10° 170° (S) 2,214 5.9 -18.8°
Sets 17:43:03 0° 173° (S) 3,081 6.7 -19.2°
